GFSMW_prec_cthk_021.txt.gz
RH
41 42 41 42 41 36 41 46 50 53 55 59 60 58 54 53 47 43 39 33 31 31 32 34 38 38 36 34 36 37 37 35 34 32 33 34 36 38 36 35 32 27 26
41 40 42 43 42 43 41 45 53 56 59 61 60 60 59 57 50 45 41 36 35 35 36 38 40 41 44 43 39 35 39 40 39 38 37 40 41 42 41 39 39 37 35
37 37 40 43 45 46 46 44 52 57 62 61 63 63 63 59 50 46 43 41 41 41 43 45 47 48 47 47 47 50 47 48 44 44 45 45 47 49 49 45 45 45 46
39 41 43 42 42 49 53 55 57 61 66 63 63 62 64 73 48 47 44 45 46 49 50 50 50 52 56 60 54 50 56 49 52 54 55 55 57 57 53 53 53 52 49
46 42 44 53 55 51 57 58 60 69 68 64 64 61 63 70 54 51 50 50 52 55 56 55 54 55 59 58 64 67 61 56 52 53 50 52 54 56 55 53 54 52 55
50 50 55 57 54 55 57 66 70 69 71 62 62 61 65 65 68 64 62 61 61 60 59 58 57 64 74 83 69 61 56 57 59 57 53 57 60 59 60 56 56 58 62
48 49 50 56 57 56 61 63 63 65 66 58 54 63 65 69 72 71 73 70 68 66 67 62 66 73 91 74 59 58 60 60 60 62 60 59 59 62 59 57 59 60 60
43 46 52 60 59 61 60 61 59 72 64 66 63 64 73 72 80 80 79 76 73 71 70 65 86 93 76 59 63 59 61 66 65 68 64 62 58 55 58 65 63 60 60
33 38 49 51 55 54 53 57 59 55 57 63 64 65 74 83 83 79 80 81 80 79 77 83 82 71 70 62 55 65 74 68 66 67 67 67 65 66 65 65 67 72 71
27 31 35 37 41 41 41 43 47 48 53 52 55 61 76 80 78 80 83 82 83 82 80 77 76 75 66 65 78 69 68 69 66 67 71 71 71 67 68 72 70 61 53
27 28 27 30 32 32 34 39 42 45 50 55 58 60 65 72 77 78 78 82 83 76 73 73 76 71 74 73 70 72 75 73 78 72 71 71 71 71 72 66 58 47 42
26 25 28 32 34 34 38 38 41 45 51 57 60 69 80 82 83 85 88 87 74 70 74 73 74 79 78 85 81 75 75 73 66 65 65 68 67 60 60 53 41 41 40
27 30 31 35 39 41 43 42 47 59 67 73 80 82 83 85 86 87 83 73 72 76 74 79 82 84 91 81 79 77 71 68 71 72 68 62 56 52 43 39 41 41 36
30 33 34 41 51 50 51 58 58 63 68 75 80 84 81 81 85 78 74 74 73 76 82 85 87 92 82 81 73 75 74 73 76 71 63 62 60 52 43 44 47 39 37
31 36 40 46 50 51 47 49 54 56 65 71 74 74 73 72 74 76 74 72 76 82 81 80 89 85 80 80 77 75 79 76 69 61 56 60 61 59 46 50 48 40 39
34 37 39 41 41 38 36 39 43 49 53 60 60 64 65 70 76 72 72 77 80 80 82 93 93 87 84 74 75 74 70 66 60 56 54 47 48 49 50 52 44 39 43
39 39 38 37 36 36 35 33 32 38 45 52 56 66 70 72 73 76 77 77 79 87 92 93 94 87 73 67 63 59 55 54 52 48 51 54 52 50 51 44 39 42 44
39 38 39 38 36 32 29 29 33 42 51 58 62 66 76 81 79 79 79 80 91 97 85 86 86 71 63 60 56 44 45 46 47 47 46 46 46 48 44 40 41 45 43
37 37 36 34 32 29 30 37 45 50 53 57 64 73 77 77 76 86 97 89 96 92 82 78 74 68 55 45 41 38 40 41 43 44 47 44 45 42 41 41 45 45 42
36 35 35 34 34 36 40 42 47 52 57 63 70 80 78 85 83 81 84 82 79 77 80 75 63 50 37 38 28 33 38 42 45 47 44 45 42 43 43 43 47 44 40
35 35 35 38 40 40 41 46 52 59 67 74 77 78 81 84 84 81 78 79 76 71 62 49 43 37 37 28 31 36 43 47 47 45 47 49 46 47 47 47 47 44 39
37 40 41 42 42 45 50 56 62 69 72 73 74 78 81 78 76 73 71 70 61 47 41 39 37 27 25 31 34 39 50 55 50 50 54 55 57 59 55 51 50 47 40
46 47 47 48 52 58 62 64 66 69 71 72 72 70 69 66 58 49 45 41 41 39 36 30 26 26 31 33 40 50 57 59 57 59 64 65 67 71 69 61 55 52 45
52 53 54 58 64 68 70 69 70 71 70 64 58 51 46 42 37 34 32 31 29 29 29 30 30 33 42 49 53 55 61 61 60 61 68 72 74 78 81 79 63 57 51
61 63 66 72 74 70 67 65 64 60 54 49 46 41 36 30 27 26 26 27 28 32 34 38 44 51 50 54 62 63 62 61 62 64 66 73 77 84 86 89 77 63 56
71 71 74 71 67 66 66 64 59 52 44 38 34 29 24 23 25 26 26 31 34 39 46 53 61 60 61 60 63 65 64 68 71 67 64 70 79 88 90 94 90 72 61

GFSMW_prec_cthk_024.txt.gz
RH
40 42 42 42 38 39 43 46 51 51 54 53 54 63 62 66 59 51 50 48 43 39 35 36 37 38 39 40 41 40 41 48 48 46 45 47 47 49 46 46 45 41 42
42 39 40 40 38 35 38 43 48 51 56 58 58 62 63 62 59 57 49 49 43 38 37 39 39 41 43 44 46 54 57 60 58 66 61 53 51 50 50 49 52 52 52
43 39 41 40 40 37 37 39 48 54 57 58 59 62 62 62 64 62 50 46 41 41 43 45 47 47 48 50 56 64 72 75 64 61 58 55 55 55 57 57 54 56 57
42 42 41 44 47 46 41 45 51 56 62 63 61 61 59 62 65 68 58 53 53 52 52 56 56 59 61 60 70 74 84 79 67 61 55 55 58 57 57 57 55 56 54
49 45 45 47 50 57 47 49 55 59 64 66 66 65 64 67 67 70 67 61 64 63 63 64 62 66 69 70 76 88 91 82 61 59 57 62 63 60 61 57 57 58 57
52 52 56 57 62 63 56 55 66 67 64 74 78 67 62 65 69 71 75 73 74 75 75 72 73 77 75 78 82 78 71 65 62 56 59 68 61 63 60 59 58 58 57
42 51 53 58 62 63 62 61 68 68 62 82 80 73 64 64 71 72 79 81 83 81 79 79 79 81 83 79 81 78 72 60 56 70 70 62 60 59 57 57 61 61 59
42 43 44 48 54 62 62 60 61 63 65 80 85 75 73 74 72 81 82 88 85 82 81 82 81 79 79 74 79 71 60 68 75 64 61 63 61 60 65 61 59 56 54
33 38 36 44 58 62 62 57 53 52 54 62 63 64 66 71 76 88 91 87 84 80 90 81 84 78 76 83 69 69 73 73 64 62 64 67 65 65 57 58 55 58 61
26 28 31 31 36 44 47 43 42 41 46 53 61 68 68 74 78 79 78 86 84 87 87 86 79 75 78 71 73 73 74 68 68 70 69 62 57 59 59 58 59 63 56
31 27 27 27 26 28 30 29 32 38 49 62 74 70 74 77 82 87 89 90 89 89 86 80 76 77 74 73 75 83 73 74 72 67 55 50 51 53 52 54 49 44 39
32 30 25 22 25 28 33 36 41 51 63 66 69 77 81 86 89 92 95 93 91 85 80 80 74 72 74 81 85 73 74 74 70 65 61 55 55 53 49 51 47 38 39
25 25 24 27 29 37 43 53 67 65 61 68 70 73 81 87 92 93 94 85 81 74 76 76 75 83 84 91 80 81 80 72 70 70 60 58 50 43 49 49 47 42 43
27 27 28 32 36 43 52 62 64 57 51 54 57 65 74 77 80 85 85 75 72 74 79 82 85 84 88 94 90 85 77 70 71 63 57 50 45 49 46 44 46 45 46
31 31 33 37 41 48 50 51 48 45 44 48 54 60 68 71 76 77 70 73 77 79 85 81 84 91 98 95 91 82 68 63 62 59 47 45 50 50 48 50 48 47 43
33 34 35 36 38 39 38 37 34 34 35 37 42 53 64 64 67 72 76 82 86 83 85 87 95 95 97 90 87 72 66 62 55 44 43 47 49 51 48 48 48 43 37
39 37 37 37 36 34 32 32 32 29 28 32 41 51 57 64 74 76 82 86 85 88 87 90 97 96 91 78 67 59 59 53 38 37 42 48 50 51 47 46 43 38 35
42 39 38 37 36 34 32 29 28 30 35 43 48 54 59 68 77 81 84 84 83 95 95 88 88 88 86 77 63 64 46 36 37 33 41 48 52 56 45 44 40 36 37
41 39 37 34 33 31 30 29 32 37 42 46 50 58 65 75 79 85 85 86 85 96 92 81 78 76 74 64 50 41 35 30 28 36 42 46 54 57 48 40 41 40 39
38 36 35 34 34 33 34 35 37 40 44 51 59 69 76 80 83 86 90 86 80 78 79 78 76 70 50 45 40 32 28 27 32 38 45 51 61 58 52 44 46 44 42
36 35 35 34 36 39 41 41 43 48 54 62 70 73 76 77 79 79 77 77 76 76 70 58 51 43 40 35 29 29 30 35 40 44 54 60 62 62 58 54 56 50 48
33 35 38 41 43 44 46 50 54 58 62 65 66 69 72 74 73 71 69 63 55 48 40 32 28 28 28 29 31 33 37 47 53 57 63 67 72 69 66 64 67 65 57
38 42 45 47 50 54 55 58 62 65 67 68 71 70 67 62 56 51 46 40 34 28 24 24 23 24 28 35 40 45 51 56 62 66 67 70 73 74 72 74 77 77 77
46 50 53 57 61 62 63 64 66 66 66 65 61 58 56 51 43 34 31 28 25 24 25 28 30 32 33 39 52 59 63 66 66 66 67 68 69 72 75 79 85 84 86
56 60 64 68 69 67 64 63 63 64 62 58 53 47 41 36 32 32 31 28 29 34 35 38 42 46 41 45 54 62 65 66 68 71 67 66 67 71 77 83 87 90 91
67 71 74 74 69 66 65 66 64 60 54 50 45 41 38 36 35 31 27 27 26 27 30 31 37 36 43 39 43 50 55 62 67 71 62 65 71 73 81 89 88 90 92

GFSMW_prec_cthk_027.txt.gz
RH
43 42 40 41 45 47 48 48 51 50 49 49 51 56 56 55 62 59 57 51 50 47 42 38 35 39 42 44 47 46 46 50 60 65 64 63 55 51 47 48 48 47 48
41 42 42 40 38 40 45 50 53 53 56 58 59 63 64 66 74 64 57 50 48 45 43 41 45 47 50 53 56 56 57 63 68 73 73 68 63 57 52 50 54 55 53
42 40 40 39 37 36 38 42 48 55 57 61 61 60 64 76 69 66 64 58 55 53 54 57 59 59 58 57 58 63 70 75 80 77 73 62 59 51 51 58 60 57 54
40 42 42 41 43 42 41 38 43 51 60 62 64 60 61 66 67 67 66 67 60 57 58 61 63 63 62 62 65 77 85 84 80 73 65 57 54 55 60 63 58 52 51
49 42 43 47 50 51 53 48 46 51 58 60 65 64 62 65 69 74 67 69 74 68 64 66 67 69 73 76 77 84 93 86 81 64 58 55 57 63 62 56 54 47 43
51 49 53 54 52 59 60 63 58 58 61 61 68 72 68 69 63 67 68 73 75 83 75 77 79 82 79 81 80 81 81 81 74 58 58 63 68 60 55 51 49 45 46
52 49 49 53 55 57 63 65 63 61 68 68 59 73 77 79 82 81 75 78 78 87 88 87 88 86 83 85 84 75 78 74 62 64 70 67 58 53 48 50 54 48 45
40 43 46 52 55 59 66 65 64 63 62 64 70 75 75 82 85 87 88 88 87 91 91 91 86 81 85 92 90 79 79 68 68 71 64 60 56 57 58 53 47 49 44
34 33 41 45 47 51 57 69 69 69 61 54 52 55 63 73 81 82 83 87 93 94 90 89 87 85 95 84 80 78 75 73 76 66 61 59 59 58 57 48 43 40 35
36 28 26 31 36 45 59 71 70 58 47 45 49 59 76 84 83 84 88 88 90 94 95 92 85 96 80 73 78 77 77 85 73 66 66 63 59 57 49 43 37 34 35
33 34 27 28 29 30 36 45 52 36 36 41 56 71 78 79 80 82 87 92 95 98 98 91 93 79 70 82 77 82 86 79 74 75 72 63 60 55 44 38 36 37 37
36 40 34 32 23 20 22 23 28 36 44 67 74 71 73 75 76 79 91 94 96 97 94 87 72 69 80 81 88 83 86 83 82 73 73 70 55 49 41 37 37 39 42
33 35 33 31 31 31 33 38 43 52 65 68 66 60 58 60 69 77 87 91 90 87 86 75 71 81 83 85 82 93 92 86 78 76 68 52 53 50 41 41 40 45 46
29 30 31 35 37 39 41 47 49 52 56 56 54 51 51 55 62 69 73 74 77 76 78 70 74 79 84 92 95 94 92 84 82 80 64 55 57 44 46 42 46 49 49
33 35 37 38 38 39 42 46 46 45 44 43 40 38 41 47 52 59 62 69 74 80 78 78 85 82 97 97 95 95 89 83 78 71 59 56 47 46 47 46 51 52 49
38 39 39 39 38 37 38 41 40 37 33 32 34 34 34 42 52 61 64 70 77 78 78 77 87 87 92 96 97 95 81 71 63 55 52 46 43 45 47 48 52 50 52
42 41 41 41 40 39 39 37 35 31 31 29 29 34 42 49 54 60 67 75 83 76 82 81 96 91 93 93 93 88 78 66 55 47 42 37 36 42 51 53 52 54 54
45 45 44 42 41 39 37 34 32 30 29 32 38 43 47 51 58 67 73 79 78 85 95 90 94 91 85 84 81 79 67 51 42 36 30 30 36 44 54 57 58 59 53
41 41 41 41 40 37 34 32 29 30 34 39 42 47 52 59 65 72 77 84 88 85 85 86 86 80 81 82 73 54 40 33 28 26 28 31 41 51 60 61 65 63 56
41 41 41 38 35 34 32 31 33 37 41 46 51 56 60 63 68 72 72 76 78 77 77 78 77 75 66 55 41 35 32 29 26 28 33 39 50 60 67 71 69 65 64
41 37 36 35 33 33 35 37 41 46 51 53 55 57 58 60 63 68 72 72 72 72 68 59 49 41 36 30 28 30 30 30 31 35 42 51 61 69 74 77 72 70 73
37 35 34 34 37 40 43 47 51 54 57 59 59 60 63 69 71 66 62 58 50 43 37 32 29 27 26 26 27 30 34 38 41 43 47 55 67 72 78 80 75 76 76
36 37 38 41 45 48 52 55 59 61 63 63 61 59 58 56 53 49 43 38 36 34 31 31 30 30 31 32 35 38 41 45 51 51 52 54 63 70 70 71 73 80 79
40 44 48 51 54 58 62 62 61 60 59 57 56 54 51 48 46 44 42 40 37 34 34 33 32 30 29 32 35 36 40 47 54 56 55 59 63 67 70 71 75 77 79
48 53 56 60 63 66 66 64 61 61 58 55 52 49 49 48 47 43 38 33 29 28 28 28 26 23 19 18 19 21 21 25 32 39 43 50 57 66 63 66 74 86 87
58 62 65 68 70 71 70 65 62 59 55 54 51 48 47 45 40 36 32 31 29 26 23 22 19 18 18 16 16 16 17 19 22 20 30 42 48 59 68 89 95 98 91

GFSMW_prec_cthk_030.txt.gz
RH
39 39 44 44 51 52 52 54 56 56 53 52 49 52 61 61 64 62 59 52 49 48 47 42 42 38 39 45 46 50 52 53 58 64 65 61 64 62 52 45 44 46 48
45 41 43 46 48 50 52 55 56 58 59 56 51 53 57 62 60 64 63 57 52 51 48 47 52 52 53 53 55 54 56 60 65 73 76 79 71 58 57 49 48 50 51
43 42 42 42 39 41 45 49 53 58 59 58 57 60 62 63 66 73 69 73 62 55 54 55 56 56 59 60 61 58 58 68 73 80 87 79 65 59 54 53 56 57 54
39 39 40 38 38 39 40 41 44 51 55 58 64 61 59 63 68 77 79 73 67 65 60 60 62 60 62 63 63 67 74 80 79 74 74 68 66 63 57 58 58 57 53
40 36 37 41 44 44 45 47 48 50 53 60 60 64 69 69 67 66 78 74 71 72 76 76 70 66 66 68 73 75 82 88 77 75 71 64 64 61 62 62 57 53 53
52 47 41 46 46 48 54 56 56 61 62 63 64 68 76 78 77 73 72 69 74 80 82 82 85 75 76 78 82 82 90 91 87 79 70 66 67 65 62 57 58 59 58
52 56 58 53 55 57 56 62 67 71 72 70 69 73 69 76 83 82 85 88 90 89 89 88 90 89 90 89 84 82 95 91 84 76 70 73 70 68 66 65 62 61 59
49 51 52 54 57 64 64 66 65 71 72 68 70 72 71 76 80 78 86 94 93 92 92 91 94 93 91 88 80 94 93 85 76 73 81 76 72 73 73 70 63 59 49
43 45 49 51 57 61 62 67 71 74 77 73 74 69 68 65 65 76 82 85 87 88 88 92 96 94 90 84 89 95 85 75 77 87 85 80 79 77 73 68 62 53 48
39 40 38 38 43 56 63 61 67 74 79 78 69 60 54 55 68 89 88 89 90 91 88 90 93 95 95 89 97 82 76 80 89 91 86 84 76 75 71 67 65 54 44
38 37 38 37 33 36 42 49 56 62 67 71 57 50 49 65 79 78 84 86 86 91 92 95 97 98 94 91 80 75 78 79 92 94 91 82 79 76 72 66 53 47 45
36 36 36 40 39 36 32 34 42 49 50 42 42 47 66 70 65 63 62 71 82 83 88 93 91 85 81 80 73 80 84 94 98 95 89 85 82 80 66 59 53 49 49
32 35 37 45 39 31 33 33 32 34 39 44 55 62 60 65 67 61 58 62 61 65 75 80 78 77 79 77 79 86 93 96 91 88 90 89 87 77 64 62 59 56 53
30 29 34 36 37 39 39 40 40 43 49 50 52 56 55 54 53 49 51 54 58 60 71 74 75 74 77 75 83 90 97 96 92 89 88 87 76 65 65 65 62 59 54
34 33 36 41 44 46 45 47 47 52 57 53 49 48 44 40 41 43 46 52 59 65 69 73 67 77 84 82 92 97 96 96 96 94 81 75 66 60 61 57 55 54 55
36 41 40 44 48 50 51 48 48 48 47 45 39 35 34 36 36 41 49 55 59 62 61 65 71 78 88 93 98 97 93 94 92 81 79 70 59 51 45 42 43 51 59
41 44 47 49 48 47 48 46 43 42 41 38 36 35 34 36 42 47 51 54 58 62 66 71 81 83 83 90 90 89 89 85 77 74 66 53 49 43 37 36 42 49 61
40 43 44 45 47 48 45 42 41 39 37 34 33 33 37 42 48 53 58 62 65 71 74 77 81 84 84 84 84 85 78 70 64 53 45 40 37 37 43 45 50 53 66
35 36 36 38 43 42 42 41 36 32 31 30 34 38 44 50 54 58 62 64 66 67 69 70 72 75 76 77 75 69 57 47 41 42 41 38 36 36 40 48 55 64 71
39 40 42 43 42 40 37 34 33 31 33 37 42 47 52 56 58 59 59 57 60 64 63 65 66 67 64 55 45 41 38 37 38 38 36 35 34 39 43 51 60 63 74
42 43 45 43 39 38 36 32 35 39 44 47 50 53 56 57 57 56 58 59 61 62 59 52 46 40 38 35 33 34 36 38 39 39 37 38 41 41 50 56 63 62 73
45 45 42 41 39 37 36 39 44 49 51 53 54 57 57 56 56 56 53 50 48 44 44 43 40 41 40 40 40 39 40 41 42 36 36 39 41 43 48 55 59 65 73
43 43 41 39 40 41 43 48 53 55 55 57 56 54 51 50 47 45 44 47 48 46 45 41 41 39 39 36 34 27 23 19 18 20 25 30 36 44 47 48 55 66 74
40 40 39 41 45 48 52 56 58 58 57 54 54 51 48 47 46 45 45 45 42 38 36 37 36 33 32 32 31 23 20 18 17 18 16 13 16 25 43 56 59 60 63
40 41 44 49 53 56 58 58 59 60 58 55 52 50 49 45 44 45 42 39 36 33 30 28 25 26 29 31 23 21 19 16 15 15 15 20 24 23 22 41 47 81 86
44 47 51 56 60 60 60 62 62 60 58 55 53 49 46 46 47 45 45 39 35 31 27 26 26 25 24 23 20 17 14 15 17 18 27 30 37 43 45 37 56 66 67

GFSMW_prec_cthk_033.txt.gz
RH
40 40 51 48 51 50 46 48 48 56 64 68 59 56 53 61 80 80 79 67 55 49 48 49 45 42 40 49 52 52 52 55 51 56 61 61 59 58 59 53 50 49 48
40 40 41 52 54 51 51 54 54 54 58 55 58 55 56 61 67 72 75 66 58 52 49 54 50 52 53 56 55 55 59 59 59 67 70 72 65 59 55 59 55 51 50
41 37 40 46 49 54 53 58 59 61 63 65 63 55 53 62 66 62 68 68 66 67 60 57 56 59 58 56 56 61 63 62 67 74 78 74 72 67 62 59 57 53 53
42 42 38 38 38 40 44 47 53 56 58 61 61 59 63 63 67 69 73 76 78 77 74 73 65 62 63 62 65 65 65 65 74 83 82 83 80 72 67 63 57 55 56
41 37 36 35 33 35 38 42 47 49 55 54 56 60 64 66 70 68 67 70 75 78 77 77 78 84 86 78 71 67 67 70 83 91 92 85 80 74 71 67 72 63 59
50 47 41 37 38 40 39 42 48 49 54 60 64 62 68 71 76 80 81 77 76 76 81 83 91 95 92 88 87 77 73 80 95 94 92 87 78 77 79 71 69 69 69
52 55 57 55 57 54 48 51 53 54 58 62 69 67 68 77 77 77 78 82 81 82 88 93 95 96 95 91 91 92 93 94 94 96 91 82 84 85 77 72 73 73 72
53 54 56 60 62 61 64 65 65 68 69 74 70 77 69 76 79 73 75 76 85 90 97 88 91 92 93 90 95 93 95 95 98 96 84 89 85 79 76 81 78 74 75
41 52 56 59 64 65 66 64 68 70 73 72 81 85 76 75 75 68 63 68 71 78 85 91 88 89 90 92 95 97 92 94 96 88 87 85 80 81 83 82 79 78 75
40 43 50 56 63 64 67 64 66 71 74 75 81 90 85 75 72 64 61 65 75 73 73 80 82 84 89 93 97 96 93 93 86 79 83 86 88 88 86 83 80 80 75
38 41 42 44 48 53 56 59 63 67 69 70 72 70 74 73 68 59 60 70 64 64 63 67 72 72 80 84 93 88 86 80 76 78 90 92 93 88 84 82 82 75 63
35 39 41 45 44 45 48 50 53 53 59 65 64 66 63 54 52 68 70 70 69 70 65 61 60 63 71 78 84 80 82 84 82 85 92 89 89 88 85 86 83 69 64
29 33 36 40 42 46 50 52 49 47 50 56 61 60 47 55 62 62 61 60 57 55 55 55 58 63 73 82 76 79 77 89 93 97 94 93 94 93 89 83 74 70 69
30 35 38 35 38 42 44 47 51 50 50 50 51 56 58 60 62 59 55 56 54 54 56 59 63 71 73 76 81 78 80 96 96 97 97 96 92 89 87 74 72 70 70
31 35 43 43 42 42 46 49 46 46 48 55 61 65 66 61 55 51 44 42 42 46 53 64 68 69 75 73 76 85 88 88 95 94 94 89 89 82 69 70 63 66 71
28 37 43 44 47 50 52 52 54 57 63 60 57 54 53 50 44 40 41 42 47 51 56 60 65 66 68 71 79 84 84 86 85 84 84 83 73 64 62 56 53 51 47
31 37 39 43 48 50 55 57 59 59 56 55 52 48 45 42 40 38 40 46 48 52 57 62 65 68 71 75 75 79 81 75 77 75 69 61 57 56 54 52 49 45 42
31 35 42 45 49 50 57 58 54 52 51 49 46 44 40 36 35 40 45 49 53 57 61 64 66 67 68 68 68 70 74 71 63 56 55 49 46 46 47 46 43 43 43
36 36 36 40 42 46 46 44 48 49 47 43 38 36 34 38 43 47 51 55 58 60 62 61 61 61 61 65 68 64 57 52 46 42 40 41 41 38 39 40 39 37 41
36 35 37 38 36 37 41 46 46 43 38 37 34 37 41 45 48 50 53 55 55 54 54 57 58 58 55 52 50 44 38 37 38 38 37 37 38 36 36 37 37 37 35
42 41 40 39 41 44 46 44 41 38 35 36 40 43 45 48 51 52 52 52 51 48 48 47 49 48 47 46 42 40 39 35 32 30 30 31 32 32 30 32 37 40 41
40 42 43 43 45 44 42 40 37 37 41 44 46 48 49 51 52 52 49 46 47 47 47 48 48 47 46 47 42 37 31 28 26 23 21 21 17 12 11 17 28 42 46
43 44 43 42 42 41 39 38 40 44 47 49 51 52 52 53 52 49 47 47 46 46 47 45 43 41 42 37 34 32 27 24 23 22 19 13 11 9 9 10 11 15 32
40 39 41 42 41 40 40 43 46 48 51 53 54 54 54 52 49 48 45 44 47 43 42 42 41 38 35 35 31 27 26 24 21 16 13 11 12 19 27 31 33 32 25
38 39 39 40 40 42 45 48 50 51 54 57 57 54 52 52 51 48 46 45 43 38 36 34 31 30 29 32 30 29 25 20 17 15 14 21 27 23 26 27 33 47 53
39 40 42 42 44 47 51 55 57 60 61 59 55 52 53 53 51 52 53 49 44 40 36 34 33 33 32 32 30 25 21 17 17 20 25 28 26 25 25 25 28 30 47

GFSMW_prec_cthk_036.txt.gz
RH
40 42 40 36 42 45 46 48 48 51 58 66 55 58 50 50 51 65 77 71 77 63 54 54 52 49 46 44 48 47 49 52 56 56 59 64 66 67 64 61 57 52 49
36 37 39 39 41 39 41 45 49 51 56 56 48 46 44 43 45 59 70 80 92 57 53 53 52 51 55 58 55 54 53 54 60 61 67 70 72 71 69 64 60 57 56
34 34 35 38 42 41 39 42 45 45 48 52 46 49 50 46 45 54 55 65 82 64 58 61 61 60 59 56 55 59 58 61 63 65 68 72 80 78 69 68 65 61 63
39 34 33 36 40 40 40 41 41 40 43 49 53 57 52 50 53 57 58 61 67 73 73 78 80 78 76 74 70 74 70 68 68 72 75 79 90 91 83 73 68 68 69
43 37 31 32 36 36 38 39 43 45 48 49 54 61 59 53 57 66 70 69 66 65 70 77 84 84 81 80 80 91 93 87 81 84 83 89 95 94 86 82 81 77 74
45 47 46 42 38 38 36 38 40 44 47 54 55 61 62 62 67 75 73 74 77 77 82 86 87 88 92 95 96 95 95 93 89 88 92 93 97 92 85 81 80 81 76
50 48 49 50 48 46 45 44 43 48 52 55 56 65 69 70 71 75 75 74 82 76 76 75 82 87 94 95 92 94 97 95 91 90 95 97 96 92 89 90 85 76 77
46 49 47 50 52 51 51 52 53 53 56 58 60 62 72 70 81 81 83 78 80 65 65 77 82 81 83 86 86 87 90 90 94 97 98 96 93 88 88 83 78 77 81
45 48 65 51 57 58 55 55 59 59 61 64 67 67 74 80 81 81 91 78 75 66 65 75 73 68 67 71 78 79 76 87 88 95 95 90 90 84 86 81 84 87 81
37 41 57 53 61 65 63 57 53 53 62 65 66 69 66 76 83 81 90 90 79 67 74 75 72 70 69 67 67 66 79 75 86 82 82 82 83 85 84 87 89 88 83
37 30 34 45 56 63 72 79 56 76 63 71 70 76 71 79 82 80 83 72 67 68 72 68 66 58 58 59 61 64 71 85 80 80 91 87 83 85 88 91 88 88 87
37 34 31 34 38 45 58 65 69 66 66 65 71 89 80 81 79 79 61 55 71 68 65 61 56 56 58 66 66 67 71 71 94 85 81 82 85 90 92 94 92 86 84
33 34 30 30 33 37 45 53 58 60 62 63 68 80 71 70 81 60 58 65 68 64 61 57 57 58 61 61 64 65 80 74 80 84 82 85 91 91 92 85 83 80 75
35 30 34 29 28 30 36 43 49 53 54 59 60 59 65 70 58 60 64 67 64 59 56 49 46 51 54 65 63 74 71 84 78 77 83 92 90 91 85 82 79 73 69
38 32 37 41 36 33 34 37 38 42 53 59 59 51 53 58 67 67 64 57 53 47 46 45 49 53 59 62 68 70 74 73 78 83 84 85 85 81 78 71 64 64 68
40 34 33 43 44 44 42 39 39 45 50 52 54 63 66 65 59 55 52 44 43 41 42 47 51 56 58 64 66 70 73 74 74 75 75 73 72 67 57 54 52 54 57
31 29 33 39 45 46 45 47 47 50 55 60 66 64 60 56 53 50 46 43 40 41 45 48 52 57 61 66 68 66 66 67 66 65 63 57 50 44 46 46 47 47 47
31 33 41 36 39 42 44 50 53 54 56 63 57 54 54 53 48 42 38 37 42 46 49 53 55 57 58 58 60 62 61 59 58 56 50 44 44 46 46 44 42 38 35
34 33 39 44 41 41 44 46 50 51 49 49 47 48 48 44 38 36 38 42 45 49 53 54 52 55 56 57 56 56 56 55 49 43 42 40 36 36 37 37 36 33 29
32 37 43 45 41 39 39 41 42 43 40 41 47 46 40 37 37 41 43 46 48 49 51 52 51 50 52 54 52 49 45 41 38 36 32 28 29 29 30 30 29 27 22
37 39 39 40 44 42 40 40 38 39 45 46 41 38 35 38 41 43 44 47 48 49 48 44 45 47 47 47 47 45 42 36 31 27 27 28 27 24 19 15 13 12 11
37 38 38 39 40 40 40 40 43 44 42 39 37 37 40 42 44 45 46 49 51 50 49 50 51 51 50 49 46 43 36 32 30 29 29 27 22 18 15 15 19 22 25
38 39 40 41 43 44 43 43 42 41 39 38 40 42 45 47 48 51 52 54 54 53 53 52 51 52 50 48 43 37 36 33 31 31 28 23 18 16 17 20 18 20 28
40 42 44 44 44 44 43 43 43 42 41 42 44 46 48 49 50 54 54 53 52 51 51 52 51 50 46 42 38 37 36 35 34 31 25 20 19 25 22 17 15 17 21
40 43 46 47 47 45 45 46 45 44 45 47 50 52 52 54 56 55 51 51 50 52 52 50 47 45 43 41 40 40 40 38 35 29 25 25 27 23 19 18 20 22 24
41 45 49 50 49 48 48 49 49 49 51 54 57 59 60 63 60 55 53 54 56 57 55 51 48 47 47 45 45 44 40 37 34 31 32 30 25 22 22 22 23 25 29

GFSMW_prec_cthk_042.txt.gz
RH
37 31 36 44 44 46 51 58 62 63 61 63 64 65 64 61 61 62 62 61 62 61 53 41 40 41 44 45 43 45 47 44 42 43 44 47 52 58 62 63 66 66 67
36 32 30 35 35 39 43 47 48 51 53 51 53 55 53 51 55 58 59 57 63 60 61 54 40 45 47 49 50 51 52 52 52 52 53 54 52 57 65 69 67 66 69
38 31 28 29 31 33 34 35 37 37 39 40 43 45 46 46 49 48 49 57 64 63 64 60 57 52 53 55 61 65 68 69 71 70 72 72 71 72 74 77 73 70 69
43 34 30 25 26 26 28 30 34 36 33 36 40 43 41 38 41 41 43 51 54 60 64 67 67 72 68 69 75 78 80 83 85 87 92 81 79 78 77 79 76 75 73
44 37 28 27 26 25 26 28 33 38 36 35 38 39 38 44 42 43 47 49 53 58 61 64 74 77 76 79 85 86 81 78 81 89 90 84 80 72 75 75 73 74 75
50 42 39 38 34 33 33 33 33 38 43 43 41 42 42 45 47 45 44 45 48 55 65 70 75 83 86 84 79 89 83 85 75 73 72 69 65 56 63 66 69 70 74
51 47 43 41 40 37 34 35 37 38 41 44 46 46 45 46 50 54 57 58 55 59 73 84 93 92 89 83 81 84 83 79 72 65 61 63 63 65 68 67 69 70 70
40 42 40 39 39 39 38 37 38 40 40 40 41 44 49 52 54 62 67 74 75 76 86 94 94 89 89 84 85 86 80 72 66 61 63 68 66 62 69 68 74 72 73
38 36 38 39 44 50 48 39 41 40 39 39 44 45 51 55 58 62 68 76 77 83 86 89 89 91 93 93 85 86 74 66 62 70 72 68 67 59 76 74 69 73 72
40 37 36 36 42 45 53 51 49 46 47 53 56 60 55 59 62 61 64 74 76 83 93 95 90 82 87 81 85 77 71 63 69 75 67 68 70 69 71 72 77 80 80
40 33 34 35 40 44 48 46 58 57 58 64 69 70 77 81 78 79 78 88 90 95 91 87 85 87 81 78 76 70 65 66 71 72 70 65 68 75 71 73 76 80 84
41 38 36 37 41 43 46 45 47 51 55 66 76 86 87 85 81 90 93 87 98 97 72 71 75 70 75 80 69 67 65 66 66 64 64 67 72 66 75 78 79 79 77
42 41 41 37 33 35 38 40 40 35 39 56 74 82 85 76 82 77 84 78 84 96 71 66 69 74 74 68 66 64 62 59 56 55 59 69 69 73 74 77 79 73 74
44 41 40 41 36 35 34 33 31 30 39 49 54 65 67 63 62 66 66 69 67 76 74 73 74 71 69 66 59 50 47 52 53 62 68 68 72 73 72 69 72 71 68
43 42 41 39 39 33 31 30 30 26 28 32 35 44 56 50 55 57 60 58 66 70 73 79 72 69 59 49 43 46 54 54 55 65 67 71 68 72 72 69 67 63 56
47 44 43 39 37 36 35 28 22 24 30 33 41 50 51 52 54 56 60 67 71 70 69 67 59 52 47 43 45 50 54 58 65 65 71 71 72 72 63 61 57 52 50
48 43 40 35 36 36 39 32 28 28 34 42 45 48 50 53 57 59 62 66 67 62 53 49 49 47 44 47 50 55 57 61 63 70 71 67 61 58 52 49 48 49 49
44 44 43 38 45 44 42 34 33 35 38 49 54 54 54 56 57 65 66 59 51 49 48 49 46 44 47 51 53 55 56 61 66 65 60 58 56 51 51 49 47 44 43
39 37 42 42 44 40 39 38 32 40 46 51 56 58 58 63 66 64 56 51 51 50 50 46 42 45 48 50 51 53 56 60 60 60 56 54 56 55 52 49 43 40 39
42 38 37 44 44 41 41 36 35 44 48 48 50 55 58 59 54 50 48 47 45 48 43 40 43 45 46 48 51 54 59 62 59 56 57 60 59 50 43 41 40 38 39
42 43 44 46 46 46 43 36 41 45 45 46 47 49 48 45 44 43 42 43 46 43 39 41 44 46 48 51 53 58 62 62 61 59 58 54 48 43 43 43 43 43 40
46 44 45 46 49 40 37 39 41 41 41 44 45 42 40 40 41 42 46 47 42 38 40 44 47 48 50 54 59 62 64 67 65 60 53 49 47 47 48 48 47 45 42
51 45 49 52 44 37 35 38 39 40 42 43 42 42 42 44 48 50 49 46 44 44 45 47 48 49 53 60 64 66 68 66 60 55 55 53 52 53 52 50 47 47 46
56 50 50 50 44 41 40 42 42 44 44 45 47 49 51 53 53 52 51 49 48 48 48 50 51 56 65 68 69 68 67 60 58 58 56 56 56 54 52 52 53 53 51
55 52 49 47 46 45 45 46 46 46 49 51 54 56 57 54 54 57 59 60 60 61 63 64 67 70 71 69 69 64 62 60 60 57 57 58 58 58 57 57 57 56 52
57 53 52 48 48 46 47 48 50 52 53 55 57 58 60 61 62 64 66 69 71 72 73 72 68 68 68 65 68 66 64 66 64 62 65 67 65 62 62 62 60 56 51

GFSMW_prec_cthk_045.txt.gz
RH
31 33 34 40 44 50 59 60 68 83 91 90 89 90 87 85 77 74 77 81 77 71 70 70 67 55 48 45 47 45 46 46 47 48 47 45 45 47 51 53 57 63 72
31 29 29 31 36 40 45 50 56 59 65 69 73 74 76 72 70 71 74 76 69 64 61 59 51 45 41 44 50 52 54 57 57 57 56 54 56 60 65 68 68 70 75
32 30 25 26 28 31 37 41 43 50 55 61 65 66 66 63 63 65 67 65 62 60 62 62 53 47 45 48 54 56 61 64 66 66 68 71 74 75 76 70 70 69 70
33 31 26 25 22 25 30 34 35 37 43 50 52 54 57 57 61 60 57 60 62 63 67 67 64 55 59 57 61 66 72 77 75 76 75 73 80 78 72 70 60 61 59
34 28 26 24 22 21 24 27 31 32 36 41 43 44 46 45 48 49 50 52 56 63 67 65 60 63 71 67 68 77 86 92 90 88 77 72 66 63 58 57 55 61 57
42 40 35 36 31 26 25 26 28 32 35 36 38 39 40 42 45 47 48 49 51 54 54 57 59 73 78 78 81 89 90 91 93 90 84 70 60 59 58 57 58 58 61
47 46 43 39 36 34 29 29 31 33 37 39 37 39 41 45 49 51 53 53 52 53 59 63 68 68 79 86 88 92 91 89 86 80 74 65 67 65 68 62 61 55 58
44 44 44 42 41 36 33 32 32 32 37 41 43 44 44 46 52 52 59 62 63 63 61 63 67 72 84 92 91 98 95 91 90 86 72 65 71 70 68 63 67 60 58
41 41 42 42 45 45 42 41 37 36 36 39 42 46 50 51 52 56 56 58 60 69 78 78 82 86 95 92 97 96 87 87 84 74 74 76 76 76 69 70 63 66 62
36 36 38 40 41 45 50 59 53 45 41 40 43 47 51 57 64 62 63 63 66 73 87 93 86 91 95 97 94 90 82 80 75 72 78 74 75 63 77 64 67 66 66
34 33 31 36 38 42 49 51 62 58 58 62 64 68 71 74 77 80 75 75 81 83 89 91 96 89 94 96 90 87 83 74 64 67 74 75 64 75 73 68 63 68 67
38 38 36 34 40 41 41 46 51 53 55 59 64 67 77 83 86 88 83 91 90 93 86 95 98 75 79 84 84 80 73 67 65 70 69 65 73 64 68 62 68 73 72
38 38 39 40 39 39 38 40 45 47 44 49 49 53 60 77 78 79 69 77 81 84 87 76 65 69 78 77 77 74 68 69 70 67 65 66 64 66 58 65 72 72 72
39 37 39 37 37 38 34 34 34 35 37 39 40 42 46 52 62 72 64 65 77 75 74 73 69 71 77 76 80 73 70 66 63 59 58 61 57 58 67 72 71 74 70
37 36 38 39 39 38 37 34 33 33 33 32 33 33 38 46 56 70 66 68 65 72 75 77 78 76 76 82 83 73 65 56 53 53 56 57 57 66 73 73 76 67 74
42 39 40 44 42 40 42 41 40 37 34 31 28 36 40 50 59 67 64 64 68 71 74 73 82 77 79 80 72 61 49 46 55 58 60 59 67 72 71 76 72 79 70
48 49 45 43 44 38 41 40 44 43 39 33 29 35 46 52 57 60 61 61 62 71 72 75 76 76 67 64 57 50 47 55 56 59 60 62 66 70 78 76 71 63 61
47 50 46 44 43 44 45 41 44 42 40 39 35 34 44 51 58 61 61 60 65 71 68 72 62 61 58 56 52 48 52 55 58 60 62 66 72 77 75 67 62 59 56
40 45 46 43 43 44 45 45 42 41 41 39 34 38 46 56 58 60 62 64 64 70 70 60 57 56 56 54 49 51 55 58 60 62 67 73 74 68 64 61 59 53 48
38 39 40 40 42 40 41 44 44 41 44 42 40 47 53 56 59 64 67 73 72 64 59 60 59 56 57 54 53 56 58 61 63 65 66 70 72 68 67 58 49 47 47
43 44 43 43 44 47 48 46 43 47 48 46 49 52 56 59 62 67 65 61 59 59 58 58 56 57 56 54 56 57 57 59 59 61 65 68 72 67 55 51 52 52 51
42 43 44 42 49 54 52 50 51 54 51 53 52 53 55 60 64 59 56 55 55 55 57 58 60 59 54 55 57 58 58 61 64 68 74 74 61 56 53 56 56 56 57
45 43 47 49 50 56 57 55 60 58 54 52 53 54 54 56 53 52 52 52 55 58 61 62 62 59 58 59 59 61 64 67 71 74 69 59 57 59 63 64 59 59 58
53 53 56 60 61 60 62 65 65 60 54 53 56 60 57 54 55 57 59 61 64 65 66 66 64 64 61 61 65 67 68 70 71 63 60 67 72 66 62 61 63 62 63
63 65 67 65 67 65 62 61 60 58 57 58 59 62 63 64 65 67 69 70 71 72 71 70 69 68 69 70 71 71 72 68 72 75 74 69 69 68 65 66 70 67 67
76 75 75 71 70 69 65 62 59 60 61 61 63 66 69 70 71 72 73 75 78 78 78 78 78 78 77 78 77 72 70 72 75 71 74 74 70 71 77 77 71 76 78